"datetime","temp","dp","rain_mm","uv","mb"
"2018-02-21 00:00:00",5.4,3.2,0.0,0.0,1024.2
"2018-02-21 00:01:00",5.3,3.1,0.0,0.0,1024.2
"2018-02-21 00:02:00",5.3,3.1,0.0,0.0,1024.2
"2018-02-21 00:03:00",5.3,3.1,0.0,0.0,1024.2
"2018-02-21 00:04:00",5.3,3.1,0.0,0.0,1024.2
"2018-02-21 00:05:00",5.3,3.1,0.0,0.0,1024.1
"2018-02-21 00:06:00",5.3,3.1,0.0,0.0,1024.2
"2018-02-21 00:07:00",5.3,3.1,0.0,0.0,1024.2
"2018-02-21 00:08:00",5.3,3.1,0.0,0.0,1024.2
"2018-02-21 00:09:00",5.3,3.1,0.0,0.0,1024.1
"2018-02-21 00:10:00",5.3,3.1,0.0,0.0,1024.2
"2018-02-21 00:11:00",5.3,3.1,0.0,0.0,1024.2
"2018-02-21 00:12:00",5.3,3.1,0.0,0.0,1024.2
"2018-02-21 00:13:00",5.2,3.0,0.0,0.0,1024.2
"2018-02-21 00:14:00",5.2,3.0,0.0,0.0,1024.2
"2018-02-21 00:15:00",5.2,3.0,0.0,0.0,1024.3
"2018-02-21 00:16:00",5.2,3.0,0.0,0.0,1024.3
"2018-02-21 00:17:00",5.2,3.0,0.0,0.0,1024.3
"2018-02-21 00:18:00",5.2,3.0,0.0,0.0,1024.3
"2018-02-21 00:19:00",5.2,3.0,0.0,0.0,1024.3
"2018-02-21 00:20:00",5.2,3.0,0.0,0.0,1024.4
"2018-02-21 00:21:00",5.2,3.2,0.0,0.0,1024.3
"2018-02-21 00:22:00",5.2,3.2,0.0,0.0,1024.4
"2018-02-21 00:23:00",5.2,3.0,0.0,0.0,1024.4
"2018-02-21 00:24:00",5.2,3.0,0.0,0.0,1024.4
"2018-02-21 00:25:00",5.2,3.0,0.0,0.0,1024.4
"2018-02-21 00:26:00",5.2,3.0,0.0,0.0,1024.5
"2018-02-21 00:27:00",5.1,3.0,0.0,0.0,1024.5
"2018-02-21 00:28:00",5.1,3.0,0.0,0.0,1024.5
"2018-02-21 00:29:00",5.1,3.0,0.0,0.0,1024.5
"2018-02-21 00:30:00",5.1,3.1,0.0,0.0,1024.5
"2018-02-21 00:31:00",5.1,3.1,0.0,0.0,1024.6
"2018-02-21 00:32:00",5.1,3.1,0.0,0.0,1024.6
"2018-02-21 00:33:00",5.1,3.1,0.0,0.0,1024.5
"2018-02-21 00:34:00",5.1,3.1,0.0,0.0,1024.6
"2018-02-21 00:35:00",5.1,3.1,0.0,0.0,1024.5
"2018-02-21 00:36:00",5.0,3.0,0.0,0.0,1024.6
"2018-02-21 00:37:00",5.0,3.0,0.0,0.0,1024.6
"2018-02-21 00:38:00",5.0,3.0,0.0,0.0,1024.6
"2018-02-21 00:39:00",5.0,3.0,0.0,0.0,1024.6
"2018-02-21 00:40:00",5.0,3.0,0.0,0.0,1024.6
"2018-02-21 00:41:00",5.0,3.0,0.0,0.0,1024.7
"2018-02-21 00:42:00",5.0,3.0,0.0,0.0,1024.7
"2018-02-21 00:43:00",5.0,3.0,0.0,0.0,1024.7
"2018-02-21 00:44:00",4.9,2.9,0.0,0.0,1024.7
"2018-02-21 00:45:00",4.9,2.9,0.0,0.0,1024.8
"2018-02-21 00:46:00",4.9,2.9,0.0,0.0,1024.7
"2018-02-21 00:47:00",4.9,2.9,0.0,0.0,1024.7
"2018-02-21 00:48:00",4.9,2.9,0.0,0.0,1024.7
"2018-02-21 00:49:00",4.9,2.9,0.0,0.0,1024.8
"2018-02-21 00:50:00",4.9,2.9,0.0,0.0,1024.8
"2018-02-21 00:51:00",4.9,2.9,0.0,0.0,1024.8
"2018-02-21 00:52:00",4.9,2.9,0.0,0.0,1024.8
"2018-02-21 00:53:00",4.9,2.9,0.0,0.0,1024.8
"2018-02-21 00:54:00",4.9,2.9,0.0,0.0,1024.8
"2018-02-21 00:55:00",4.9,2.9,0.0,0.0,1024.8
"2018-02-21 00:56:00",4.9,2.9,0.0,0.0,1024.8
"2018-02-21 00:57:00",4.9,2.9,0.0,0.0,1024.8
"2018-02-21 00:58:00",4.9,2.9,0.0,0.0,1024.8
"2018-02-21 00:59:00",4.9,2.9,0.0,0.0,1024.9
"2018-02-21 01:00:00",4.9,2.9,0.0,0.0,1024.9
"2018-02-21 01:01:00",4.9,2.9,0.0,0.0,1024.9
"2018-02-21 01:02:00",4.9,2.9,0.0,0.0,1024.9
"2018-02-21 01:03:00",4.9,2.9,0.0,0.0,1024.9
"2018-02-21 01:04:00",4.9,2.9,0.0,0.0,1024.9
"2018-02-21 01:05:00",4.8,2.8,0.0,0.0,1024.9
"2018-02-21 01:06:00",4.8,2.8,0.0,0.0,1024.8
"2018-02-21 01:07:00",4.8,2.8,0.0,0.0,1024.9
"2018-02-21 01:08:00",4.8,2.8,0.0,0.0,1024.9
"2018-02-21 01:09:00",4.8,2.8,0.0,0.0,1024.9
"2018-02-21 01:10:00",4.8,2.8,0.0,0.0,1024.9
"2018-02-21 01:11:00",4.8,2.8,0.0,0.0,1025.0
"2018-02-21 01:12:00",4.8,2.8,0.0,0.0,1025.0
"2018-02-21 01:13:00",4.8,2.8,0.0,0.0,1025.0
"2018-02-21 01:14:00",4.8,2.8,0.0,0.0,1025.0
"2018-02-21 01:15:00",4.8,2.8,0.0,0.0,1025.0
"2018-02-21 01:16:00",4.8,2.8,0.0,0.0,1025.0
"2018-02-21 01:17:00",4.8,2.8,0.0,0.0,1025.0
"2018-02-21 01:18:00",4.8,2.8,0.0,0.0,1025.0
"2018-02-21 01:19:00",4.8,2.8,0.0,0.0,1025.0
"2018-02-21 01:20:00",4.8,2.8,0.0,0.0,1025.1
"2018-02-21 01:21:00",4.8,2.8,0.0,0.0,1025.0
"2018-02-21 01:22:00",4.8,2.8,0.0,0.0,1025.1
"2018-02-21 01:23:00",4.8,2.8,0.0,0.0,1025.1
"2018-02-21 01:24:00",4.8,2.8,0.0,0.0,1025.1
"2018-02-21 01:25:00",4.8,2.8,0.0,0.0,1025.2
"2018-02-21 01:26:00",4.8,2.8,0.0,0.0,1025.1
"2018-02-21 01:27:00",4.8,2.8,0.0,0.0,1025.2
"2018-02-21 01:28:00",4.7,2.7,0.0,0.0,1025.2
"2018-02-21 01:29:00",4.8,2.8,0.0,0.0,1025.2
"2018-02-21 01:30:00",4.7,2.7,0.0,0.0,1025.2
"2018-02-21 01:31:00",4.7,2.7,0.0,0.0,1025.2
"2018-02-21 01:32:00",4.7,2.7,0.0,0.0,1025.1
"2018-02-21 01:33:00",4.7,2.7,0.0,0.0,1025.1
"2018-02-21 01:34:00",4.7,2.7,0.0,0.0,1025.2
"2018-02-21 01:35:00",4.7,2.7,0.0,0.0,1025.2
"2018-02-21 01:36:00",4.7,2.7,0.0,0.0,1025.2
"2018-02-21 01:37:00",4.7,2.7,0.0,0.0,1025.2
"2018-02-21 01:38:00",4.7,2.7,0.0,0.0,1025.2
"2018-02-21 01:39:00",4.7,2.7,0.0,0.0,1025.2
"2018-02-21 01:40:00",4.7,2.7,0.0,0.0,1025.3
"2018-02-21 01:41:00",4.7,2.7,0.0,0.0,1025.2
"2018-02-21 01:42:00",4.7,2.7,0.0,0.0,1025.2
"2018-02-21 01:43:00",4.7,2.7,0.0,0.0,1025.2
"2018-02-21 01:44:00",4.7,2.7,0.0,0.0,1025.2
"2018-02-21 01:45:00",4.7,2.7,0.0,0.0,1025.2
"2018-02-21 01:46:00",4.7,2.7,0.0,0.0,1025.2
"2018-02-21 01:47:00",4.7,2.7,0.0,0.0,1025.2
"2018-02-21 01:48:00",4.6,2.6,0.0,0.0,1025.2
"2018-02-21 01:49:00",4.6,2.6,0.0,0.0,1025.2
"2018-02-21 01:50:00",4.6,2.6,0.0,0.0,1025.2
"2018-02-21 01:51:00",4.6,2.6,0.0,0.0,1025.2
"2018-02-21 01:52:00",4.6,2.6,0.0,0.0,1025.2
"2018-02-21 01:53:00",4.6,2.6,0.0,0.0,1025.2
"2018-02-21 01:54:00",4.6,2.6,0.0,0.0,1025.2
"2018-02-21 01:55:00",4.6,2.6,0.0,0.0,1025.2
"2018-02-21 01:56:00",4.6,2.6,0.0,0.0,1025.2
"2018-02-21 01:57:00",4.6,2.6,0.0,0.0,1025.2
"2018-02-21 01:58:00",4.6,2.6,0.0,0.0,1025.2
"2018-02-21 01:59:00",4.6,2.6,0.0,0.0,1025.2
"2018-02-21 02:00:00",4.6,2.6,0.0,0.0,1025.1
"2018-02-21 02:01:00",4.6,2.6,0.0,0.0,1025.2
"2018-02-21 02:02:00",4.6,2.6,0.0,0.0,1025.1
"2018-02-21 02:03:00",4.6,2.6,0.0,0.0,1025.2
"2018-02-21 02:04:00",4.6,2.6,0.0,0.0,1025.3
"2018-02-21 02:05:00",4.6,2.6,0.0,0.0,1025.2
"2018-02-21 02:06:00",4.5,2.5,0.0,0.0,1025.2
"2018-02-21 02:07:00",4.5,2.5,0.0,0.0,1025.3
"2018-02-21 02:08:00",4.5,2.5,0.0,0.0,1025.3
"2018-02-21 02:09:00",4.5,2.5,0.0,0.0,1025.3
"2018-02-21 02:10:00",4.5,2.5,0.0,0.0,1025.3
"2018-02-21 02:11:00",4.5,2.5,0.0,0.0,1025.3
"2018-02-21 02:12:00",4.5,2.5,0.0,0.0,1025.3
"2018-02-21 02:13:00",4.5,2.5,0.0,0.0,1025.3
"2018-02-21 02:14:00",4.5,2.5,0.0,0.0,1025.3
"2018-02-21 02:15:00",4.5,2.5,0.0,0.0,1025.3
"2018-02-21 02:16:00",4.5,2.5,0.0,0.0,1025.3
"2018-02-21 02:17:00",4.5,2.5,0.0,0.0,1025.3
"2018-02-21 02:18:00",4.5,2.5,0.0,0.0,1025.4
"2018-02-21 02:19:00",4.5,2.5,0.0,0.0,1025.3
"2018-02-21 02:20:00",4.5,2.5,0.0,0.0,1025.3
"2018-02-21 02:21:00",4.5,2.5,0.0,0.0,1025.3
"2018-02-21 02:22:00",4.5,2.5,0.0,0.0,1025.3
"2018-02-21 02:23:00",4.5,2.5,0.0,0.0,1025.4
"2018-02-21 02:24:00",4.4,2.4,0.0,0.0,1025.3
"2018-02-21 02:25:00",4.5,2.5,0.0,0.0,1025.3
"2018-02-21 02:26:00",4.4,2.4,0.0,0.0,1025.3
"2018-02-21 02:27:00",4.4,2.4,0.0,0.0,1025.3
"2018-02-21 02:28:00",4.4,2.4,0.0,0.0,1025.3
"2018-02-21 02:29:00",4.4,2.4,0.0,0.0,1025.3
"2018-02-21 02:30:00",4.4,2.4,0.0,0.0,1025.4
"2018-02-21 02:31:00",4.4,2.4,0.0,0.0,1025.3
"2018-02-21 02:32:00",4.4,2.4,0.0,0.0,1025.3
"2018-02-21 02:33:00",4.4,2.4,0.0,0.0,1025.3
"2018-02-21 02:34:00",4.4,2.4,0.0,0.0,1025.3
"2018-02-21 02:35:00",4.4,2.4,0.0,0.0,1025.3
"2018-02-21 02:36:00",4.4,2.4,0.0,0.0,1025.3
"2018-02-21 02:37:00",4.4,2.4,0.0,0.0,1025.3
"2018-02-21 02:38:00",4.4,2.4,0.0,0.0,1025.3
"2018-02-21 02:39:00",4.3,2.3,0.0,0.0,1025.3
"2018-02-21 02:40:00",4.3,2.3,0.0,0.0,1025.3
"2018-02-21 02:41:00",4.3,2.3,0.0,0.0,1025.3
"2018-02-21 02:42:00",4.3,2.3,0.0,0.0,1025.3
"2018-02-21 02:43:00",4.3,2.3,0.0,0.0,1025.3
"2018-02-21 02:44:00",4.3,2.3,0.0,0.0,1025.3
"2018-02-21 02:45:00",4.3,2.3,0.0,0.0,1025.3
"2018-02-21 02:46:00",4.3,2.3,0.0,0.0,1025.2
"2018-02-21 02:47:00",4.3,2.3,0.0,0.0,1025.2
"2018-02-21 02:48:00",4.3,2.3,0.0,0.0,1025.3
"2018-02-21 02:49:00",4.3,2.3,0.0,0.0,1025.2
"2018-02-21 02:50:00",4.2,2.2,0.0,0.0,1025.3
"2018-02-21 02:51:00",4.2,2.2,0.0,0.0,1025.2
"2018-02-21 02:52:00",4.2,2.2,0.0,0.0,1025.3
"2018-02-21 02:53:00",4.2,2.2,0.0,0.0,1025.3
"2018-02-21 02:54:00",4.2,2.2,0.0,0.0,1025.3
"2018-02-21 02:55:00",4.2,2.2,0.0,0.0,1025.3
"2018-02-21 02:56:00",4.2,2.2,0.0,0.0,1025.3
"2018-02-21 02:57:00",4.2,2.2,0.0,0.0,1025.3
"2018-02-21 02:58:00",4.1,2.1,0.0,0.0,1025.3
"2018-02-21 02:59:00",4.1,2.1,0.0,0.0,1025.3
"2018-02-21 03:00:00",4.1,2.0,0.0,0.0,1025.3
"2018-02-21 03:01:00",4.1,2.0,0.0,0.0,1025.3
"2018-02-21 03:02:00",4.1,2.0,0.0,0.0,1025.4
"2018-02-21 03:03:00",4.0,1.9,0.0,0.0,1025.4
"2018-02-21 03:04:00",4.0,1.9,0.0,0.0,1025.4
"2018-02-21 03:05:00",4.0,1.9,0.0,0.0,1025.4
"2018-02-21 03:06:00",3.9,1.9,0.0,0.0,1025.4
"2018-02-21 03:07:00",3.9,1.8,0.0,0.0,1025.4
"2018-02-21 03:08:00",3.9,1.8,0.0,0.0,1025.4
"2018-02-21 03:09:00",3.9,1.8,0.0,0.0,1025.4
"2018-02-21 03:10:00",3.9,1.8,0.0,0.0,1025.4
"2018-02-21 03:11:00",3.9,1.8,0.0,0.0,1025.4
"2018-02-21 03:12:00",3.8,1.7,0.0,0.0,1025.4
"2018-02-21 03:13:00",3.8,1.7,0.0,0.0,1025.4
"2018-02-21 03:14:00",3.8,1.7,0.0,0.0,1025.4
"2018-02-21 03:15:00",3.8,1.7,0.0,0.0,1025.3
"2018-02-21 03:16:00",3.8,1.7,0.0,0.0,1025.4
"2018-02-21 03:17:00",3.8,1.7,0.0,0.0,1025.4
"2018-02-21 03:18:00",3.8,1.7,0.0,0.0,1025.4
"2018-02-21 03:19:00",3.8,1.7,0.0,0.0,1025.4
"2018-02-21 03:20:00",3.8,1.8,0.0,0.0,1025.4
"2018-02-21 03:21:00",3.8,1.8,0.0,0.0,1025.4
"2018-02-21 03:22:00",3.7,1.6,0.0,0.0,1025.4
"2018-02-21 03:23:00",3.7,1.6,0.0,0.0,1025.4
"2018-02-21 03:24:00",3.7,1.6,0.0,0.0,1025.4
"2018-02-21 03:25:00",3.7,1.6,0.0,0.0,1025.4
"2018-02-21 03:26:00",3.7,1.6,0.0,0.0,1025.4
"2018-02-21 03:27:00",3.7,1.6,0.0,0.0,1025.4
"2018-02-21 03:28:00",3.7,1.6,0.0,0.0,1025.4
"2018-02-21 03:29:00",3.6,1.5,0.0,0.0,1025.4
"2018-02-21 03:30:00",3.6,1.5,0.0,0.0,1025.5
"2018-02-21 03:31:00",3.6,1.5,0.0,0.0,1025.5
"2018-02-21 03:32:00",3.6,1.5,0.0,0.0,1025.5
"2018-02-21 03:33:00",3.5,1.4,0.0,0.0,1025.5
"2018-02-21 03:34:00",3.5,1.4,0.0,0.0,1025.5
"2018-02-21 03:35:00",3.4,1.3,0.0,0.0,1025.5
"2018-02-21 03:36:00",3.4,1.3,0.0,0.0,1025.6
"2018-02-21 03:37:00",3.4,1.3,0.0,0.0,1025.5
"2018-02-21 03:38:00",3.4,1.3,0.0,0.0,1025.5
"2018-02-21 03:39:00",3.3,1.2,0.0,0.0,1025.5
"2018-02-21 03:40:00",3.3,1.2,0.0,0.0,1025.5
"2018-02-21 03:41:00",3.3,1.2,0.0,0.0,1025.6
"2018-02-21 03:42:00",3.3,1.2,0.0,0.0,1025.5
"2018-02-21 03:43:00",3.3,1.2,0.0,0.0,1025.5
"2018-02-21 03:44:00",3.3,1.2,0.0,0.0,1025.5
"2018-02-21 03:45:00",3.2,1.1,0.0,0.0,1025.5
"2018-02-21 03:46:00",3.2,1.1,0.0,0.0,1025.6
"2018-02-21 03:47:00",3.2,1.1,0.0,0.0,1025.6
"2018-02-21 03:48:00",3.2,1.1,0.0,0.0,1025.6
"2018-02-21 03:49:00",3.1,1.0,0.0,0.0,1025.5
"2018-02-21 03:50:00",3.1,1.0,0.0,0.0,1025.6
"2018-02-21 03:51:00",3.1,1.0,0.0,0.0,1025.6
"2018-02-21 03:52:00",3.0,0.9,0.0,0.0,1025.6
"2018-02-21 03:53:00",2.9,0.8,0.0,0.0,1025.5
"2018-02-21 03:54:00",2.9,0.8,0.0,0.0,1025.6
"2018-02-21 03:55:00",2.9,0.8,0.0,0.0,1025.6
"2018-02-21 03:56:00",2.8,0.7,0.0,0.0,1025.6
"2018-02-21 03:57:00",2.8,0.7,0.0,0.0,1025.6
"2018-02-21 03:58:00",2.8,0.7,0.0,0.0,1025.6
"2018-02-21 03:59:00",2.8,0.7,0.0,0.0,1025.6
"2018-02-21 04:00:00",2.7,0.6,0.0,0.0,1025.6
"2018-02-21 04:01:00",2.7,0.6,0.0,0.0,1025.6
"2018-02-21 04:02:00",2.7,0.6,0.0,0.0,1025.6
"2018-02-21 04:03:00",2.7,0.6,0.0,0.0,1025.6
"2018-02-21 04:04:00",2.6,0.5,0.0,0.0,1025.6
"2018-02-21 04:05:00",2.6,0.5,0.0,0.0,1025.6
"2018-02-21 04:06:00",2.6,0.5,0.0,0.0,1025.6
"2018-02-21 04:07:00",2.6,0.5,0.0,0.0,1025.6
"2018-02-21 04:08:00",2.5,0.4,0.0,0.0,1025.6
"2018-02-21 04:09:00",2.4,0.3,0.0,0.0,1025.6
"2018-02-21 04:10:00",2.4,0.3,0.0,0.0,1025.6
"2018-02-21 04:11:00",2.4,0.3,0.0,0.0,1025.6
"2018-02-21 04:12:00",2.4,0.3,0.0,0.0,1025.6
"2018-02-21 04:13:00",2.3,0.2,0.0,0.0,1025.6
"2018-02-21 04:14:00",2.3,0.2,0.0,0.0,1025.5
"2018-02-21 04:15:00",2.3,0.2,0.0,0.0,1025.5
"2018-02-21 04:16:00",2.3,0.2,0.0,0.0,1025.5
"2018-02-21 04:17:00",2.2,0.1,0.0,0.0,1025.5
"2018-02-21 04:18:00",2.2,0.3,0.0,0.0,1025.5
"2018-02-21 04:19:00",2.2,0.1,0.0,0.0,1025.6
"2018-02-21 04:20:00",2.2,0.1,0.0,0.0,1025.6
"2018-02-21 04:21:00",2.1,0.0,0.0,0.0,1025.6
"2018-02-21 04:22:00",2.1,0.2,0.0,0.0,1025.6
"2018-02-21 04:23:00",2.1,0.2,0.0,0.0,1025.6
"2018-02-21 04:24:00",2.1,0.2,0.0,0.0,1025.6
"2018-02-21 04:25:00",2.1,0.2,0.0,0.0,1025.6
"2018-02-21 04:26:00",2.0,0.1,0.0,0.0,1025.6
"2018-02-21 04:27:00",1.9,0.0,0.0,0.0,1025.5
"2018-02-21 04:28:00",1.9,0.0,0.0,0.0,1025.6
"2018-02-21 04:29:00",1.9,0.0,0.0,0.0,1025.5
"2018-02-21 04:30:00",1.9,0.0,0.0,0.0,1025.6
"2018-02-21 04:31:00",1.9,0.0,0.0,0.0,1025.5
"2018-02-21 04:32:00",1.8,"-0.1",0.0,0.0,1025.5
"2018-02-21 04:33:00",1.8,"-0.1",0.0,0.0,1025.6
"2018-02-21 04:34:00",1.8,"-0.1",0.0,0.0,1025.6
"2018-02-21 04:35:00",1.8,"-0.1",0.0,0.0,1025.6
"2018-02-21 04:36:00",1.8,"-0.1",0.0,0.0,1025.6
"2018-02-21 04:37:00",1.7,"-0.2",0.0,0.0,1025.6
"2018-02-21 04:38:00",1.7,"-0.2",0.0,0.0,1025.6
"2018-02-21 04:39:00",1.7,"-0.2",0.0,0.0,1025.7
"2018-02-21 04:40:00",1.7,"-0.2",0.0,0.0,1025.7
"2018-02-21 04:41:00",1.7,"-0.2",0.0,0.0,1025.7
"2018-02-21 04:42:00",1.7,"-0.2",0.0,0.0,1025.6
"2018-02-21 04:43:00",1.6,"-0.3",0.0,0.0,1025.7
"2018-02-21 04:44:00",1.6,"-0.3",0.0,0.0,1025.7
"2018-02-21 04:45:00",1.6,"-0.2",0.0,0.0,1025.7
"2018-02-21 04:46:00",1.6,"-0.2",0.0,0.0,1025.7
"2018-02-21 04:47:00",1.5,"-0.3",0.0,0.0,1025.7
"2018-02-21 04:48:00",1.5,"-0.3",0.0,0.0,1025.7
"2018-02-21 04:49:00",1.5,"-0.3",0.0,0.0,1025.7
"2018-02-21 04:50:00",1.4,"-0.4",0.0,0.0,1025.7
"2018-02-21 04:51:00",1.4,"-0.4",0.0,0.0,1025.7
"2018-02-21 04:52:00",1.4,"-0.4",0.0,0.0,1025.7
"2018-02-21 04:53:00",1.4,"-0.4",0.0,0.0,1025.7
"2018-02-21 04:54:00",1.4,"-0.4",0.0,0.0,1025.8
"2018-02-21 04:55:00",1.3,"-0.5",0.0,0.0,1025.7
"2018-02-21 04:56:00",1.3,"-0.5",0.0,0.0,1025.8
"2018-02-21 04:57:00",1.3,"-0.5",0.0,0.0,1025.8
"2018-02-21 04:58:00",1.3,"-0.5",0.0,0.0,1025.8
"2018-02-21 04:59:00",1.3,"-0.5",0.0,0.0,1025.8
"2018-02-21 05:00:00",1.3,"-0.5",0.0,0.0,1025.9
"2018-02-21 05:01:00",1.3,"-0.5",0.0,0.0,1025.8
"2018-02-21 05:02:00",1.2,"-0.6",0.0,0.0,1025.8
"2018-02-21 05:03:00",1.2,"-0.6",0.0,0.0,1025.9
"2018-02-21 05:04:00",1.2,"-0.6",0.0,0.0,1025.8
"2018-02-21 05:05:00",1.2,"-0.6",0.0,0.0,1025.8
"2018-02-21 05:06:00",1.2,"-0.6",0.0,0.0,1025.8
"2018-02-21 05:07:00",1.2,"-0.6",0.0,0.0,1025.8
"2018-02-21 05:08:00",1.1,"-0.7",0.0,0.0,1025.8
"2018-02-21 05:09:00",1.1,"-0.7",0.0,0.0,1025.8
"2018-02-21 05:10:00",1.1,"-0.5",0.0,0.0,1025.8
"2018-02-21 05:11:00",1.1,"-0.5",0.0,0.0,1025.8
"2018-02-21 05:12:00",1.1,"-0.5",0.0,0.0,1025.8
"2018-02-21 05:13:00",1.0,"-0.6",0.0,0.0,1025.8
"2018-02-21 05:14:00",1.0,"-0.6",0.0,0.0,1025.8
"2018-02-21 05:15:00",1.0,"-0.6",0.0,0.0,1025.8
"2018-02-21 05:16:00",0.9,"-0.7",0.0,0.0,1025.8
"2018-02-21 05:17:00",0.9,"-0.9",0.0,0.0,1025.8
"2018-02-21 05:18:00",0.9,"-0.9",0.0,0.0,1025.8
"2018-02-21 05:19:00",0.9,"-0.9",0.0,0.0,1025.8
"2018-02-21 05:20:00",0.9,"-0.9",0.0,0.0,1025.8
"2018-02-21 05:21:00",0.9,"-0.7",0.0,0.0,1025.8
"2018-02-21 05:22:00",0.8,"-0.8",0.0,0.0,1025.8
"2018-02-21 05:23:00",0.8,"-0.8",0.0,0.0,1025.8
"2018-02-21 05:24:00",0.8,"-0.8",0.0,0.0,1025.9
"2018-02-21 05:25:00",0.8,"-0.8",0.0,0.0,1025.8
"2018-02-21 05:26:00",0.8,"-0.8",0.0,0.0,1025.8
"2018-02-21 05:27:00",0.8,"-0.8",0.0,0.0,1025.8
"2018-02-21 05:28:00",0.7,"-0.9",0.0,0.0,1025.8
"2018-02-21 05:29:00",0.7,"-0.9",0.0,0.0,1025.8
"2018-02-21 05:30:00",0.7,"-0.9",0.0,0.0,1025.8
"2018-02-21 05:31:00",0.7,"-0.9",0.0,0.0,1025.8
"2018-02-21 05:32:00",0.7,"-0.9",0.0,0.0,1025.9
"2018-02-21 05:33:00",0.7,"-0.9",0.0,0.0,1025.9
"2018-02-21 05:34:00",0.6,"-1.0",0.0,0.0,1025.9
"2018-02-21 05:35:00",0.6,"-1.0",0.0,0.0,1025.9
"2018-02-21 05:36:00",0.6,"-1.0",0.0,0.0,1025.9
"2018-02-21 05:37:00",0.6,"-1.0",0.0,0.0,1025.9
"2018-02-21 05:38:00",0.6,"-1.0",0.0,0.0,1025.9
"2018-02-21 05:39:00",0.6,"-1.0",0.0,0.0,1025.9
"2018-02-21 05:40:00",0.5,"-1.1",0.0,0.0,1025.9
"2018-02-21 05:41:00",0.5,"-1.1",0.0,0.0,1026.0
"2018-02-21 05:42:00",0.5,"-1.1",0.0,0.0,1026.0
"2018-02-21 05:43:00",0.4,"-1.2",0.0,0.0,1026.0
"2018-02-21 05:44:00",0.4,"-1.2",0.0,0.0,1026.0
"2018-02-21 05:45:00",0.4,"-1.2",0.0,0.0,1026.0
"2018-02-21 05:46:00",0.4,"-1.2",0.0,0.0,1026.0
"2018-02-21 05:47:00",0.4,"-1.2",0.0,0.0,1026.0
"2018-02-21 05:48:00",0.4,"-1.2",0.0,0.0,1026.0
"2018-02-21 05:49:00",0.3,"-1.3",0.0,0.0,1026.0
"2018-02-21 05:50:00",0.3,"-1.3",0.0,0.0,1026.0
"2018-02-21 05:51:00",0.3,"-1.3",0.0,0.0,1026.0
"2018-02-21 05:52:00",0.3,"-1.3",0.0,0.0,1026.0
"2018-02-21 05:53:00",0.3,"-1.3",0.0,0.0,1026.0
"2018-02-21 05:54:00",0.3,"-1.3",0.0,0.0,1026.0
"2018-02-21 05:55:00",0.3,"-1.3",0.0,0.0,1026.0
"2018-02-21 05:56:00",0.2,"-1.4",0.0,0.0,1026.0
"2018-02-21 05:57:00",0.2,"-1.4",0.0,0.0,1026.0
"2018-02-21 05:58:00",0.2,"-1.4",0.0,0.0,1026.1
"2018-02-21 05:59:00",0.2,"-1.4",0.0,0.0,1026.1
"2018-02-21 06:00:00",0.2,"-1.4",0.0,0.0,1026.0
"2018-02-21 06:01:00",0.2,"-1.4",0.0,0.0,1026.0
"2018-02-21 06:02:00",0.2,"-1.4",0.0,0.0,1026.0
"2018-02-21 06:03:00",0.1,"-1.5",0.0,0.0,1026.0
"2018-02-21 06:04:00",0.1,"-1.5",0.0,0.0,1026.0
"2018-02-21 06:05:00",0.1,"-1.5",0.0,0.0,1026.0
"2018-02-21 06:06:00",0.1,"-1.5",0.0,0.0,1026.0
"2018-02-21 06:07:00",0.1,"-1.5",0.0,0.0,1026.0
"2018-02-21 06:08:00",0.1,"-1.5",0.0,0.0,1026.0
"2018-02-21 06:09:00",0.1,"-1.5",0.0,0.0,1026.1
"2018-02-21 06:10:00",0.0,"-1.6",0.0,0.0,1026.0
"2018-02-21 06:11:00",0.0,"-1.6",0.0,0.0,1026.1
"2018-02-21 06:12:00",0.0,"-1.6",0.0,0.0,1026.1
"2018-02-21 06:13:00",0.0,"-1.6",0.0,0.0,1026.1
"2018-02-21 06:14:00","-0.1","-1.7",0.0,0.0,1026.1
"2018-02-21 06:15:00","-0.1","-1.5",0.0,0.0,1026.1
"2018-02-21 06:16:00","-0.1","-1.5",0.0,0.0,1026.1
"2018-02-21 06:17:00","-0.1","-1.5",0.0,0.0,1026.1
"2018-02-21 06:18:00","-0.1","-1.5",0.0,0.0,1026.1
"2018-02-21 06:19:00","-0.1","-1.5",0.0,0.0,1026.1
"2018-02-21 06:20:00","-0.2","-1.6",0.0,0.0,1026.1
"2018-02-21 06:21:00","-0.2","-1.8",0.0,0.0,1026.2
"2018-02-21 06:22:00","-0.2","-1.8",0.0,0.0,1026.2
"2018-02-21 06:23:00","-0.2","-1.8",0.0,0.0,1026.2
"2018-02-21 06:24:00","-0.2","-1.8",0.0,0.0,1026.2
"2018-02-21 06:25:00","-0.2","-1.6",0.0,0.0,1026.2
"2018-02-21 06:26:00","-0.2","-1.6",0.0,0.0,1026.2
"2018-02-21 06:27:00","-0.2","-1.6",0.0,0.0,1026.2
"2018-02-21 06:28:00","-0.2","-1.6",0.0,0.0,1026.2
"2018-02-21 06:29:00","-0.3","-1.7",0.0,0.0,1026.2
"2018-02-21 06:30:00","-0.3","-1.7",0.0,0.0,1026.2
"2018-02-21 06:31:00","-0.3","-1.7",0.0,0.0,1026.2
"2018-02-21 06:32:00","-0.3","-1.7",0.0,0.0,1026.3
"2018-02-21 06:33:00","-0.3","-1.7",0.0,0.0,1026.3
"2018-02-21 06:34:00","-0.3","-1.7",0.0,0.0,1026.3
"2018-02-21 06:35:00","-0.3","-1.7",0.0,0.0,1026.3
"2018-02-21 06:36:00","-0.3","-1.7",0.0,0.0,1026.3
"2018-02-21 06:37:00","-0.3","-1.7",0.0,0.0,1026.3
"2018-02-21 06:38:00","-0.3","-1.7",0.0,0.0,1026.3
"2018-02-21 06:39:00","-0.3","-1.7",0.0,0.0,1026.3
"2018-02-21 06:40:00","-0.3","-1.7",0.0,0.0,1026.3
"2018-02-21 06:41:00","-0.4","-1.8",0.0,0.0,1026.3
"2018-02-21 06:42:00","-0.4","-1.8",0.0,0.0,1026.3
"2018-02-21 06:43:00","-0.4","-1.8",0.0,0.0,1026.3
"2018-02-21 06:44:00","-0.4","-1.8",0.0,0.0,1026.3
"2018-02-21 06:45:00","-0.4","-1.8",0.0,0.0,1026.3
"2018-02-21 06:46:00","-0.4","-1.8",0.0,0.0,1026.2
"2018-02-21 06:47:00","-0.4","-1.8",0.0,0.0,1026.2
"2018-02-21 06:48:00","-0.4","-1.8",0.0,0.0,1026.2
"2018-02-21 06:49:00","-0.4","-1.8",0.0,0.0,1026.2
"2018-02-21 06:50:00","-0.4","-1.8",0.0,0.0,1026.2
"2018-02-21 06:51:00","-0.5","-1.9",0.0,0.0,1026.2
"2018-02-21 06:52:00","-0.5","-1.9",0.0,0.0,1026.2
"2018-02-21 06:53:00","-0.5","-1.9",0.0,0.0,1026.2
"2018-02-21 06:54:00","-0.5","-1.9",0.0,0.0,1026.2
"2018-02-21 06:55:00","-0.5","-1.9",0.0,0.0,1026.2
"2018-02-21 06:56:00","-0.5","-1.9",0.0,0.0,1026.2
"2018-02-21 06:57:00","-0.5","-1.9",0.0,0.0,1026.2
"2018-02-21 06:58:00","-0.5","-1.9",0.0,0.0,1026.2
"2018-02-21 06:59:00","-0.6","-2.0",0.0,0.0,1026.2
"2018-02-21 07:00:00","-0.6","-2.0",0.0,0.0,1026.1
"2018-02-21 07:01:00","-0.6","-2.0",0.0,0.0,1026.2
"2018-02-21 07:02:00","-0.6","-2.0",0.0,0.0,1026.2
"2018-02-21 07:03:00","-0.6","-2.0",0.0,0.0,1026.2
"2018-02-21 07:04:00","-0.6","-2.0",0.0,0.0,1026.2
"2018-02-21 07:05:00","-0.6","-2.0",0.0,0.0,1026.1
"2018-02-21 07:06:00","-0.6","-2.0",0.0,0.0,1026.1
"2018-02-21 07:07:00","-0.6","-2.0",0.0,0.0,1026.1
"2018-02-21 07:08:00","-0.6","-2.0",0.0,0.0,1026.1
"2018-02-21 07:09:00","-0.6","-2.0",0.0,0.0,1026.1
"2018-02-21 07:10:00","-0.6","-2.0",0.0,0.0,1026.1
"2018-02-21 07:11:00","-0.6","-2.0",0.0,0.0,1026.1
"2018-02-21 07:12:00","-0.6","-2.0",0.0,0.0,1026.1
"2018-02-21 07:13:00","-0.6","-2.0",0.0,0.0,1026.1
"2018-02-21 07:14:00","-0.6","-2.0",0.0,0.0,1026.1
"2018-02-21 07:15:00","-0.7","-2.1",0.0,0.0,1026.1
"2018-02-21 07:16:00","-0.7","-2.1",0.0,0.0,1026.1
"2018-02-21 07:17:00","-0.7","-2.1",0.0,0.0,1026.1
"2018-02-21 07:18:00","-0.7","-2.1",0.0,0.0,1026.0
"2018-02-21 07:19:00","-0.7","-2.1",0.0,0.0,1026.0
"2018-02-21 07:20:00","-0.7","-2.1",0.0,0.0,1026.0
"2018-02-21 07:21:00","-0.7","-2.1",0.0,0.0,1026.0
"2018-02-21 07:22:00","-0.7","-2.1",0.0,0.0,1026.0
"2018-02-21 07:23:00","-0.7","-2.1",0.0,0.0,1026.0
"2018-02-21 07:24:00","-0.7","-2.1",0.0,0.0,1026.0
"2018-02-21 07:25:00","-0.7","-2.0",0.0,0.0,1026.0
"2018-02-21 07:26:00","-0.7","-2.0",0.0,0.0,1026.0
"2018-02-21 07:27:00","-0.7","-2.0",0.0,0.0,1026.0
"2018-02-21 07:28:00","-0.7","-2.0",0.0,0.0,1026.0
"2018-02-21 07:29:00","-0.7","-2.0",0.0,0.0,1026.0
"2018-02-21 07:30:00","-0.7","-2.0",0.0,0.0,1026.0
"2018-02-21 07:31:00","-0.8","-2.1",0.0,0.0,1026.1
"2018-02-21 07:32:00","-0.7","-2.0",0.0,0.0,1026.1
"2018-02-21 07:33:00","-0.8","-2.1",0.0,0.0,1026.1
"2018-02-21 07:34:00","-0.8","-2.1",0.0,0.0,1026.0
"2018-02-21 07:35:00","-0.8","-2.1",0.0,0.0,1026.1
"2018-02-21 07:36:00","-0.8","-2.1",0.0,0.0,1026.1
"2018-02-21 07:37:00","-0.8","-2.1",0.0,0.0,1026.1
"2018-02-21 07:38:00","-0.8","-2.1",0.0,0.0,1026.0
"2018-02-21 07:39:00","-0.8","-2.1",0.0,0.0,1026.1
"2018-02-21 07:40:00","-0.8","-2.1",0.0,0.0,1026.1
"2018-02-21 07:41:00","-0.8","-2.1",0.0,0.0,1026.0
"2018-02-21 07:42:00","-0.8","-2.1",0.0,0.0,1026.1
"2018-02-21 07:43:00","-0.8","-2.1",0.0,0.0,1026.0
"2018-02-21 07:44:00","-0.8","-2.1",0.0,0.0,1026.1
"2018-02-21 07:45:00","-0.8","-2.1",0.0,0.0,1026.1
"2018-02-21 07:46:00","-0.8","-2.1",0.0,0.0,1026.1
"2018-02-21 07:47:00","-0.8","-2.1",0.0,0.0,1026.1
"2018-02-21 07:48:00","-0.8","-2.1",0.0,0.0,1026.1
"2018-02-21 07:49:00","-0.8","-2.1",0.0,0.0,1026.1
"2018-02-21 07:50:00","-0.8","-2.1",0.0,0.0,1026.1
"2018-02-21 07:51:00","-0.8","-2.1",0.0,0.0,1026.1
"2018-02-21 07:52:00","-0.8","-2.1",0.0,0.0,1026.1
"2018-02-21 07:53:00","-0.8","-2.1",0.0,0.0,1026.1
"2018-02-21 07:54:00","-0.8","-2.1",0.0,0.0,1026.1
"2018-02-21 07:55:00","-0.8","-2.1",0.0,0.0,1026.1
"2018-02-21 07:56:00","-0.8","-2.1",0.0,0.0,1026.1
"2018-02-21 07:57:00","-0.8","-2.1",0.0,0.0,1026.1
"2018-02-21 07:58:00","-0.8","-2.1",0.0,0.0,1026.1
"2018-02-21 07:59:00","-0.8","-2.1",0.0,0.0,1026.1
"2018-02-21 08:00:00","-0.9","-2.2",0.0,0.0,1026.2
"2018-02-21 08:01:00","-0.8","-2.1",0.0,0.0,1026.2
"2018-02-21 08:02:00","-0.8","-2.1",0.0,0.0,1026.2
"2018-02-21 08:03:00","-0.8","-2.1",0.0,0.0,1026.1
"2018-02-21 08:04:00","-0.7","-2.0",0.0,0.0,1026.2
"2018-02-21 08:05:00","-0.7","-2.0",0.0,0.0,1026.2
"2018-02-21 08:06:00","-0.6","-1.9",0.0,0.0,1026.2
"2018-02-21 08:07:00","-0.6","-1.9",0.0,0.0,1026.2
"2018-02-21 08:08:00","-0.6","-1.9",0.0,0.0,1026.2
"2018-02-21 08:09:00","-0.6","-1.7",0.0,0.0,1026.2
"2018-02-21 08:10:00","-0.6","-1.7",0.0,0.0,1026.2
"2018-02-21 08:11:00","-0.5","-1.6",0.0,0.0,1026.2
"2018-02-21 08:12:00","-0.5","-1.6",0.0,0.0,1026.2
"2018-02-21 08:13:00","-0.5","-1.6",0.0,0.0,1026.2
"2018-02-21 08:14:00","-0.4","-1.5",0.0,0.0,1026.2
"2018-02-21 08:15:00","-0.4","-1.5",0.0,0.0,1026.2
"2018-02-21 08:16:00","-0.4","-1.5",0.0,0.0,1026.3
"2018-02-21 08:17:00","-0.4","-1.5",0.0,0.0,1026.3
"2018-02-21 08:18:00","-0.3","-1.4",0.0,0.0,1026.3
"2018-02-21 08:19:00","-0.3","-1.4",0.0,0.0,1026.3
"2018-02-21 08:20:00","-0.2","-1.3",0.0,0.0,1026.3
"2018-02-21 08:21:00","-0.2","-1.3",0.0,0.0,1026.3
"2018-02-21 08:22:00","-0.2","-1.3",0.0,0.0,1026.3
"2018-02-21 08:23:00","-0.2","-1.3",0.0,0.0,1026.3
"2018-02-21 08:24:00","-0.1","-1.2",0.0,0.0,1026.3
"2018-02-21 08:25:00","-0.1","-1.2",0.0,0.0,1026.3
"2018-02-21 08:26:00",0.0,"-1.1",0.0,0.0,1026.3